Погода в Клюквинке

Россия / Томская область     58°32′40″N   85°52′12″E
В апреле 2022 года жителям России запретили посещать сайт meteo.paraplan.net по решению Генеральной прокуратуры. Аудитория сайта уменьшилась в 10 раз. Владельцы сайта не видят смысла в поддержке погодного сервера в таких условиях. Сайт будет закрыт в октябре.
темп.,
°C
ветер,
м/с
пор.,
м/с
влажн.,
%
обл.,
%
осадки,
мм/ч
давл.,
гПа
погр.,
м
4 октября, вт
вт401:00−1ю2378100 0.0 103644
04:00−2ююз22805 0.0 103535
07:00−3ююз238232 0.0 103548
10:00+2ююз356220 0.0 1034260
13:00+6ююз464880 0.0 1032869
16:00+6юз4754100 0.0 1030855
19:00+3ююз3107491 0.1 1030329
22:00+3юз31071100 0.0 1028526
5 октября, ср
ср501:00+2юз41198100 0.8 1027633
04:00+1юз41098100 0.6 1025515
07:00+2зюз41098100 0.9 1024506
10:00+2з3998100 1.6 1024585
13:00+3сз378598 1.8 1024802
16:00+6зсз486939 0.1 10251287
19:00+3зсз398689 0.1 1026265
22:00+2зсз2893100 0.2 1027282
6 октября, чт
чт601:00+2зсз3893100 0.3 1027423
04:00+1зсз3892100 0.1 1028356
07:000зсз269692 0.1 1028218
10:00+2сз359592 0.1 1029410
13:00+3сз347797 0.3 1029767
16:00+4зсз2371100 0.1 1030771
19:00+2сз1184100 0.2 103118
22:00+1з118984 0.0 103210
7 октября, пт
пт701:00−1ююв119358 0.0 103210
04:00−1ююв119373 0.0 103216
07:000ююв1291100 0.0 103266
10:00+2ю2483100 0.0 1031269
13:00+5ю3571100 0.0 1029729
16:00+6ю3672100 0.0 1028547
19:00+4ююв2783100 0.0 1027153
22:00+3ююв31085100 0.0 1026253
8 октября, сб
сб801:00+4ю41187100 0.0 1024320
04:00+4ю31192100 0.0 1023339
07:00+4ю41292100 0.0 1021386
10:00+6ю51382100 0.0 1019485
13:00+9ю51268100 0.0 1017628
16:00+10ю51263100 0.0 1015679
19:00+8ююв51366100 0.0 1013503
22:00+7ююв51368100 0.0 1011461